Previsão horária em Abiego

Hoje, 23 Junho, Quarta-feira

Tempo Temperatura Precipitação Vento Pressão Humidade
00:00 +14°C° 0 mm 3 m/s 706 mmHg 70%
01:00 +15°C° 0 mm 2 m/s 706 mmHg 70%
02:00 +14°C° 0 mm 2 m/s 705 mmHg 71%
03:00 +14°C° 0 mm 2 m/s 705 mmHg 72%
04:00 +14°C° 0.1 mm 2 m/s 706 mmHg 72%
05:00 +14°C° 0.1 mm 2 m/s 706 mmHg 73%
06:00 +15°C° 0.1 mm 2 m/s 706 mmHg 74%
07:00 +16°C° 0.1 mm 2 m/s 707 mmHg 70%
08:00 +17°C° 0.1 mm 2 m/s 707 mmHg 66%
09:00 +18°C° 0.1 mm 2 m/s 707 mmHg 62%
10:00 +18°C° 0.3 mm 2 m/s 707 mmHg 59%
11:00 +19°C° 0.3 mm 2 m/s 707 mmHg 56%
12:00 +20°C° 0.3 mm 2 m/s 708 mmHg 53%
13:00 +20°C° 0.5 mm 2 m/s 707 mmHg 51%
14:00 +21°C° 0.5 mm 3 m/s 707 mmHg 48%
15:00 +21°C° 0.5 mm 3 m/s 707 mmHg 46%
16:00 +21°C° 0.3 mm 3 m/s 707 mmHg 47%
17:00 +20°C° 0.3 mm 4 m/s 707 mmHg 47%
18:00 +20°C° 0.3 mm 4 m/s 707 mmHg 48%
19:00 +18°C° 0.1 mm 4 m/s 708 mmHg 54%
20:00 +17°C° 0.1 mm 3 m/s 708 mmHg 60%
21:00 +14°C° 0.1 mm 3 m/s 708 mmHg 66%
22:00 +14°C° 0.1 mm 3 m/s 708 mmHg 69%
23:00 +14°C° 0.1 mm 2 m/s 708 mmHg 72%

Amanhã, 24 Junho, Quinta-feira

Tempo Temperatura Precipitação Vento Pressão Humidade
00:00 +13°C° 0.1 mm 2 m/s 708 mmHg 76%
01:00 +13°C° 0 mm 2 m/s 708 mmHg 77%
02:00 +13°C° 0 mm 2 m/s 708 mmHg 79%
03:00 +12°C° 0 mm 2 m/s 708 mmHg 80%
04:00 +13°C° 0 mm 1 m/s 708 mmHg 78%
05:00 +13°C° 0 mm 1 m/s 708 mmHg 76%
06:00 +14°C° 0 mm 1 m/s 709 mmHg 74%
07:00 +16°C° 0 mm 1 m/s 709 mmHg 66%
08:00 +19°C° 0 mm 1 m/s 709 mmHg 58%
09:00 +21°C° 0 mm 1 m/s 710 mmHg 50%
10:00 +22°C° 0 mm 1 m/s 710 mmHg 45%
11:00 +24°C° 0 mm 2 m/s 710 mmHg 40%
12:00 +25°C° 0 mm 2 m/s 710 mmHg 36%
13:00 +25°C° 0 mm 3 m/s 710 mmHg 34%
14:00 +26°C° 0 mm 3 m/s 709 mmHg 33%
15:00 +27°C° 0 mm 3 m/s 709 mmHg 31%
16:00 +26°C° 0 mm 3 m/s 709 mmHg 33%
17:00 +26°C° 0 mm 3 m/s 709 mmHg 35%
18:00 +25°C° 0 mm 3 m/s 709 mmHg 38%
19:00 +22°C° 0 mm 3 m/s 709 mmHg 44%
20:00 +20°C° 0 mm 2 m/s 709 mmHg 51%
21:00 +19°C° 0 mm 2 m/s 710 mmHg 57%
22:00 +18°C° 0 mm 2 m/s 710 mmHg 60%
23:00 +17°C° 0 mm 2 m/s 709 mmHg 63%

Depois de amanhã, 25 Junho, Sexta-feira

Tempo Temperatura Precipitação Vento Pressão Humidade
00:00 +16°C° 0 mm 1 m/s 709 mmHg 65%
01:00 +16°C° 0 mm 1 m/s 709 mmHg 67%
02:00 +15°C° 0 mm 1 m/s 709 mmHg 69%
03:00 +15°C° 0 mm 1 m/s 709 mmHg 71%
04:00 +15°C° 0 mm 1 m/s 710 mmHg 69%
05:00 +16°C° 0 mm 1 m/s 710 mmHg 67%
06:00 +15°C° 0 mm 0 m/s 710 mmHg 65%
07:00 +19°C° 0 mm 1 m/s 710 mmHg 59%
08:00 +21°C° 0 mm 1 m/s 710 mmHg 53%
09:00 +23°C° 0 mm 1 m/s 710 mmHg 47%
10:00 +24°C° 0 mm 2 m/s 710 mmHg 42%
11:00 +26°C° 0 mm 2 m/s 710 mmHg 37%
12:00 +27°C° 0 mm 3 m/s 710 mmHg 33%
13:00 +28°C° 0 mm 3 m/s 709 mmHg 30%
14:00 +29°C° 0 mm 3 m/s 709 mmHg 27%
15:00 +30°C° 0 mm 3 m/s 709 mmHg 25%
16:00 +30°C° 0 mm 2 m/s 708 mmHg 25%
17:00 +29°C° 0 mm 2 m/s 708 mmHg 25%
18:00 +29°C° 0 mm 1 m/s 707 mmHg 26%
19:00 +27°C° 0 mm 1 m/s 707 mmHg 34%
20:00 +24°C° 0 mm 1 m/s 707 mmHg 43%
21:00 +22°C° 0 mm 1 m/s 708 mmHg 51%
22:00 +20°C° 0 mm 2 m/s 708 mmHg 55%
23:00 +20°C° 0 mm 2 m/s 708 mmHg 59%

26 Junho, Sábado

Tempo Temperatura Precipitação Vento Pressão Humidade
00:00 +19°C° 0 mm 2 m/s 708 mmHg 63%
01:00 +19°C° 0 mm 2 m/s 707 mmHg 64%
02:00 +18°C° 0 mm 2 m/s 707 mmHg 65%
03:00 +18°C° 0 mm 2 m/s 707 mmHg 66%
04:00 +18°C° 0 mm 2 m/s 707 mmHg 64%
05:00 +20°C° 0 mm 1 m/s 707 mmHg 62%
06:00 +21°C° 0 mm 1 m/s 707 mmHg 61%
07:00 +21°C° 0 mm 2 m/s 707 mmHg 54%
08:00 +24°C° 0 mm 2 m/s 707 mmHg 48%
09:00 +26°C° 0 mm 3 m/s 707 mmHg 42%
10:00 +28°C° 0 mm 3 m/s 707 mmHg 39%
11:00 +29°C° 0 mm 3 m/s 707 mmHg 36%
12:00 +31°C° 0 mm 3 m/s 707 mmHg 34%
13:00 +32°C° 0 mm 4 m/s 707 mmHg 32%
14:00 +33°C° 0 mm 4 m/s 706 mmHg 31%
15:00 +33°C° 0 mm 5 m/s 705 mmHg 30%
16:00 +29°C° 1.5 mm 6 m/s 705 mmHg 43%
17:00 +24°C° 1.5 mm 6 m/s 706 mmHg 57%
18:00 +21°C° 1.5 mm 7 m/s 706 mmHg 70%
19:00 +20°C° 0.5 mm 5 m/s 706 mmHg 72%
20:00 +19°C° 0.5 mm 4 m/s 705 mmHg 73%
21:00 +19°C° 0.5 mm 3 m/s 705 mmHg 74%
22:00 +19°C° 0.1 mm 2 m/s 705 mmHg 74%
23:00 +18°C° 0.1 mm 2 m/s 705 mmHg 75%

27 Junho, Domingo

Tempo Temperatura Precipitação Vento Pressão Humidade
00:00 +19°C° 0.1 mm 1 m/s 705 mmHg 75%
01:00 +19°C° 0.1 mm 1 m/s 705 mmHg 75%
02:00 +19°C° 0.1 mm 1 m/s 704 mmHg 76%
03:00 +19°C° 0.1 mm 1 m/s 704 mmHg 76%
04:00 +19°C° 0 mm 1 m/s 704 mmHg 75%
05:00 +19°C° 0 mm 1 m/s 704 mmHg 74%
06:00 +20°C° 0 mm 1 m/s 704 mmHg 73%
07:00 +21°C° 0 mm 1 m/s 704 mmHg 67%
08:00 +23°C° 0 mm 2 m/s 705 mmHg 61%
09:00 +24°C° 0 mm 2 m/s 705 mmHg 55%
10:00 +25°C° 0.3 mm 3 m/s 705 mmHg 54%
11:00 +26°C° 0.3 mm 3 m/s 705 mmHg 52%
12:00 +26°C° 0.3 mm 3 m/s 705 mmHg 50%
13:00 +27°C° 0.2 mm 4 m/s 705 mmHg 47%
14:00 +27°C° 0.2 mm 5 m/s 705 mmHg 44%
15:00 +27°C° 0.2 mm 6 m/s 705 mmHg 40%
16:00 +26°C° 0 mm 6 m/s 705 mmHg 40%
17:00 +25°C° 0 mm 5 m/s 705 mmHg 39%
18:00 +23°C° 0 mm 5 m/s 705 mmHg 38%
19:00 +21°C° 0 mm 4 m/s 705 mmHg 42%
20:00 +19°C° 0 mm 3 m/s 705 mmHg 46%
21:00 +17°C° 0 mm 3 m/s 706 mmHg 50%
22:00 +16°C° 0 mm 3 m/s 706 mmHg 51%
23:00 +14°C° 0 mm 3 m/s 706 mmHg 51%

28 Junho, Segunda-feira

Tempo Temperatura Precipitação Vento Pressão Humidade
00:00 +14°C° 0 mm 3 m/s 706 mmHg 51%
01:00 +13°C° 0 mm 3 m/s 706 mmHg 52%
02:00 +13°C° 0 mm 3 m/s 706 mmHg 53%
03:00 +12°C° 0 mm 3 m/s 706 mmHg 54%
04:00 +13°C° 0 mm 3 m/s 707 mmHg 54%
05:00 +13°C° 0 mm 3 m/s 707 mmHg 55%
06:00 +14°C° 0 mm 3 m/s 707 mmHg 56%
07:00 +17°C° 0 mm 3 m/s 707 mmHg 51%
08:00 +19°C° 0 mm 3 m/s 708 mmHg 46%
09:00 +21°C° 0 mm 3 m/s 708 mmHg 42%
10:00 +22°C° 0 mm 4 m/s 708 mmHg 39%
11:00 +25°C° 0 mm 4 m/s 708 mmHg 35%
12:00 +26°C° 0 mm 4 m/s 708 mmHg 32%
13:00 +27°C° 0 mm 5 m/s 708 mmHg 31%
14:00 +27°C° 0 mm 6 m/s 708 mmHg 30%
15:00 +27°C° 0 mm 6 m/s 708 mmHg 29%
16:00 +26°C° 0 mm 6 m/s 708 mmHg 32%
17:00 +25°C° 0 mm 5 m/s 708 mmHg 35%
18:00 +25°C° 0 mm 5 m/s 708 mmHg 38%
19:00 +22°C° 0 mm 4 m/s 708 mmHg 44%
20:00 +20°C° 0 mm 3 m/s 708 mmHg 51%
21:00 +18°C° 0 mm 3 m/s 708 mmHg 58%
22:00 +17°C° 0 mm 2 m/s 708 mmHg 61%
23:00 +16°C° 0 mm 2 m/s 708 mmHg 63%
Mostrar mais

Necessitamos do seu Consentimento

A Meteoprog e os seus Fornecedores de Serviços podem armazenar e aceder a dados pessoais como cookies, identificadores do dispositivo ou outras tecnologias semelhantes existentes no seu dispositivo e processar estes dados para personalizar conteúdos e anúncios, assim como funcionalidades nas redes sociais e análise de tráfego.

  • Armazenar e/ou aceder a informações no seu dispositivo

    Os cookies, identificadores do dispositivo ou outras informações podem ser armazenados ou acedidos no seu dispositivo, para os fins acima indicados.

  • Anúncios e conteúdos personalizados, medição de anúncios e conteúdos, dados sobre o público-alvo e desenvolvimento de produtos

    Os anúncios e os conteúdos podem ser personalizados com base num perfil. Podem ser adicionados dados adicionais para uma maior personalização dos anúncios e dos conteúdos. A eficácia dos anúncios e dos conteúdos pode ser medida. Podem ser obtidas informações sobre o público que visualizou os anúncios e os conteúdos. Estes dados podem ser usados para desenvolver ou melhorar sistemas, softwares ou a experiência do utilizador.

Ao clicar em "Eu concordo”, permitirá o uso de cookies, identificadores do dispositivo e web beacons mencionados ou outras tecnologias semelhantes. As configurações do navegador do seu dispositivo podem ser alteradas.

Para certos fins, podem ser invocados interesses legítimos ao invés de consentimento. Pode ler mais informação sobre este assunto na nossa Política de Privacidade e Cookies.